Location: Mercogliano
(40.9167°N, 14.7333°E)
Time: 20:49:07
(UTC+00:00)

ISS - Visible Passes

Search period start: 30 November 2020 00:00
Search period end: 10 December 2020 00:00
Orbit: 418 x 420 km, 51.6° (Epoch: 01 December)

Date Brightness Start Highest point End Pass type
(mag) Time Alt. Az. Time Alt. Az. Time Alt. Az.
30 Nov -1.4 17:17:23 10° NNW 17:18:36 14° N 17:18:36 14° N visible
01 Dec -1.5 16:29:45 10° NNW 16:31:31 13° N 16:32:58 11° NNE visible
02 Dec -1.6 17:18:52 10° NNW 17:20:20 17° N 17:20:20 17° N visible
03 Dec -1.8 16:31:24 10° NNW 16:33:39 16° NNE 16:34:48 14° NE visible
03 Dec -0.5 18:07:42 10° NW 18:07:45 10° NW 18:07:45 10° NW visible
04 Dec -2.4 17:20:12 10° NW 17:22:19 28° N 17:22:19 28° N visible
05 Dec -2.5 16:32:43 10° NW 16:35:37 26° NNE 16:37:01 19° ENE visible
05 Dec -0.8 18:09:18 10° WNW 18:10:00 15° WNW 18:10:00 15° WNW visible
06 Dec -3.8 17:21:37 10° NW 17:24:52 82° WNW 17:24:52 82° WNW visible
07 Dec -3.7 16:34:02 10° NW 16:37:21 55° NNE 16:40:00 15° ESE visible
07 Dec -0.7 18:11:34 10° W 18:13:00 16° WSW 18:13:00 16° WSW visible
08 Dec -1.8 17:23:25 10° WNW 17:26:22 29° SW 17:28:31 15° S visible
09 Dec -2.8 16:35:32 10° WNW 16:38:49 51° SW 16:42:05 10° SE visible
